www.pogodaiklimat.ru

Погода и климат >> Архив погоды >> Россия >> Ленинградская область >> Кингисепп


АРХИВ ПОГОДЫ в Кингисеппе

Время (UTC), дата Ветер
(напр.,м/с)
 
Видим.   Явления Облачность Т
(С)
Тd
(С)
f
(%)
Тe
(С)
Тes
(С)
Комфортность P
(гПа)
Po
(гПа)
Тmin
(С)
Tmax
(С)
R
(мм)
R24
(мм)
S
(см)
03 20.05 ЮВ 2 20 км 10/0
[Ac trans Cs]
+14.8 +9.3 70 +15 +15 1018.2 1015.8 +14.7
06 20.05 В 2 20 км 10/0
[As trans Cs]
+19.8 +10.2 54 +22 +26 комфорт 1018.2 1015.8 +14.7
09 20.05 ЮВ 2 20 км 10/0
[As trans Ci fib]
+24.7 +11.0 42 +26 +36 жарко 1017.5 1015.2
12 20.05 ЮВ 3 20 км 10/3 600 м
[Cu med, cong Ci fib]
+27.4 +10.4 35 +28 +33 жарко 1016.5 1014.2
15 20.05 ЮВ 4 20 км 10/3 600 м
[Sc diur, vesp Ci fib]
+27.4 +7.5 28 +27 +29 жарко 1015.1 1012.8
18 20.05 штиль 0 20 км 10/3 600 м
[Sc Ci fib]
+22.6 +13.7 57 +26 +26 жарко 1014.6 1012.3 +28.2
21 20.05 В 1 10 км 9/0
[Ac trans Ci fib]
+15.9 +12.8 82 +17 +17 1014.8 1012.4
00 21.05 В 1 10 км 10/3 600 м
[Sc Ac trans Ci fib]
+14.6 +12.0 84 +15 +15 1014.6 1012.2
03 21.05 В 1 20 км 8/3 600 м
[Sc Ac trans Ci fib]
+13.4 +10.7 84 +14 +14 1014.1 1011.7 +13.1
06 21.05 ЮВ 1 20 км 8/3 600 м
[Sc Ac trans Ci fib]
+19.2 +12.0 63 +21 +25 комфорт 1013.9 1011.5 +13.1
09 21.05 штиль 0 20 км 6/3 600 м
[Sc Ac trans Ci fib]
+23.9 +11.5 46 +25 +35 комфорт 1013.3 1011.0
12 21.05 Ю 4 20 км гроза без осадков {ливн. осадки} 8/5 600 м
[Cb cap Ac trans Ci fib]
+22.4 +14.8 62 +26 +29 жарко 1012.7 1010.4
15 21.05 В 1 20 км гроза без осадков 8/5 600 м
[Cb cap Ac trans Ci fib]
+20.7 +14.2 66 +24 +26 комфорт 1012.4 1010.1 0.0
18 21.05 штиль 0 20 км {гроза} 8/3 600 м
[Sc diur, vesp Ac trans Ci fib]
+19.0 +16.2 84 +20 +20 1011.7 1009.3 +27.4 0.0
21 21.05 В 1 10 км 5/0
[Ac trans Ci fib]
+15.3 +14.4 94 +16 +16 1011.7 1009.3
00 22.05 В 1 10 км 3/0
[Ac trans Ci fib]
+13.5 +13.0 97 +14 +14 1011.0 1008.6
03 22.05 штиль 0 10 км 5/0
[Ci fib]
+13.7 +12.6 93 +13 +14 1010.6 1008.2 +11.9
06 22.05 ЮВ 2 20 км 1/0
[Ci fib]
+19.6 +13.3 67 +22 +28 комфорт 1010.2 1007.8 +11.9
09 22.05 СВ 2 20 км 3/1 1000 м
[Cu hum Cc]
+22.8 +13.3 55 +26 +37 жарко 1009.7 1007.4
12 22.05 СВ 2 20 км 6/6 1000 м
[Cu Sc]
+24.4 +13.9 52 +27 +31 жарко 1008.2 1005.9
15 22.05 Ю 3 20 км {гроза, ливн. осадки} 6/4 1000 м
[Cu Sc Ci fib]
+23.0 +14.8 60 +27 +29 душно 1007.4 1005.1 0.0
18 22.05 штиль 0 20 км в посл. час ливневой дождь {гроза} 5/3 600 м
[Cb cap Ac trans Ci fib]
+19.7 +15.9 79 +22 +22 комфорт 1006.9 1004.6 +26.0 0.0
21 22.05 штиль 0 10 км 5/3 600 м
[Sc Ac trans Ci fib]
+15.7 +14.5 93 +15 +15 1006.3 1004.0
00 23.05 СЗ 1 10 км 8/3 600 м
[Sc Ac trans Ci fib]
+13.2 +11.7 91 +13 +13 1006.2 1003.8
03 23.05 СЗ 1 10 км 9/4 600 м
[Sc Ac trans]
+13.4 +12.1 92 +14 +14 1007.0 1004.6 +12.9 0.0
06 23.05 СВ 2 20 км {ливн. осадки} 10/10 400 м
[St]
+14.9 +11.4 80 +15 +15 1008.7 1006.3 +12.9 0.1
09 23.05 СВ 3 20 км 8/6 600 м
[Sc Ci fib]
+13.4 +8.0 70 +12 +16 1011.0 1008.6
12 23.05 СВ 4 20 км 10/0
[Ci fib]
+13.1 +6.7 65 +12 +18 1011.6 1009.2
15 23.05 В 3 20 км 5/0
[Ci fib]
+12.9 +5.7 62 +12 +15 1011.8 1009.4 0.1
18 23.05 В 2 20 км 6/0
[Ac trans Ci fib]
+10.8 +4.9 67 +10 +10 1012.5 1010.1 +15.4
21 23.05 СВ 1 10 км 3/0
[Ac trans Ci fib]
+7.1 +5.1 87 +6 +6 1013.1 1010.7
00 24.05 В 2 10 км 6/0
[Ac trans Ci fib]
+6.1 +3.7 85 +4 +4 1013.1 1010.6
03 24.05 В 2 10 км 8/3
[Sc Ac trans]
+6.5 +3.9 83 +4 +5 1013.3 1010.8 +5.6
06 24.05 В 3 20 км 8/3
[Sc Ac trans Ci fib]
+10.6 +5.1 69 +9 +11 1012.6 1010.2 +5.6
09 24.05 ЮВ 3 20 км 9/3 1000 м
[Sc Ac trans]
+13.2 +5.8 61 +12 +16 1011.9 1009.5
12 24.05 В 1 10 км слаб. дождь 10/0 930 м
[As op]
+13.7 +8.1 69 +14 +17 1011.2 1008.8
15 24.05 В 1 10 км слаб. дождь 10/10 360 м
[Frnb Ns]
+12.7 +10.8 88 +13 +13 1010.0 1007.6 3
18 24.05 В 1 10 км {дождь} 10/10 600 м
[Cb cap]
+12.5 +11.2 92 +12 +12 1009.3 1006.9 +14.9 3
21 24.05 В 1 4000 м в посл. час ливневой дождь 10/10 120 м
[St]
+12.1 +11.5 96 +12 +12 1008.5 1006.1
00 25.05 З 1 10 км {ливн. осадки} 10/10 270 м
[St]
+12.5 +11.8 95 +12 +12 1007.5 1005.1
03 25.05 З 1 10 км 10/10 210 м
[St]
+11.8 +10.4 91 +12 +12 1006.5 1004.1 +11.3 0.6
06 25.05 Ю 2 10 км 10/10 330 м
[St]
+13.1 +10.8 86 +12 +12 1005.5 1003.1 +11.3 0.6
09 25.05 ЮЗ 2 10 км 10/8 1110 м
[Sc Ac und]
+16.5 +10.3 67 +17 +17 1003.7 1001.4
12 25.05 ЮЗ 2 10 км {ливн. осадки} 10/8 1410 м
[Sc Ac und]
+13.9 +10.9 82 +13 +14 1003.1 1000.7
15 25.05 СЗ 2 10 км слаб. ливневой дождь 10/10 720 м
[Cb cap]
+11.0 +8.4 84 +10 +10 1003.1 1000.7 2
18 25.05 З 1 10 км слаб. ливневой дождь 9/8 500 м
[Cb cap Ac trans]
+11.6 +9.4 86 +11 +11 1002.2 999.8 +16.8 2
21 25.05 З 1 10 км {ливн. осадки} 9/6 800 м
[Sc Ac trans]
+10.2 +8.6 90 +10 +10 1002.1 999.7
00 26.05 ЮЗ 2 10 км в посл. час ливневой дождь 10/10 450 м
[St]
+9.5 +8.3 92 +8 +8 1002.5 1000.1
03 26.05 З 2 10 км слаб. ливневой дождь 10/10 270 м
[Cb cap]
+8.9 +8.1 95 +7 +7 1002.9 1000.5 +8.9 0.9
06 26.05 ЮЗ 3 20 км {ливн. осадки} 10/10 360 м
[St]
+9.5 +7.2 86 +7 +7 1003.4 1001.0 +8.9 0.4
09 26.05 ЮВ 2 20 км 8/3 600 м
[Sc Ci fib]
+13.3 +7.1 66 +13 +21 1002.9 1000.5
12 26.05 Ю 2 20 км 9/3 600 м
[Cb cap Ac As]
+16.1 +6.3 52 +16 +20 1001.4 999.0
15 26.05 Ю 3 10 км слаб. дождь 10/0
[As op]
+12.4 +9.0 80 +11 +12 1000.3 997.9 0.6
18 26.05 ЮЗ 2 10 км в посл. час дождь {ливн. осадки} 9/9 720 м
[Sc]
+10.0 +8.8 92 +8 +8 999.3 996.9 +16.3 7
21 26.05 ЮЗ 2 10 км {ливн. осадки} 9/8 1170 м
[Sc Ac trans]
+8.7 +7.6 93 +7 +7 998.5 996.1
00 27.05 Ю 2 10 км {ливн. осадки} 3/3 1000 м
[Sc Ac trans]
+7.9 +7.0 94 +6 +6 998.3 995.9

 

Местоположение метеостанции Кингисепп (Ленинградская область, Россия): широта 59.37 долгота 28.60 высота над уровнем моря 20 м.

В архиве по умолчанию представлена погода в Кингисеппе за последнюю неделю. Архивные данные за месяц целиком и за предыдущие месяцы, начиная с января 2011 года, Вы можете получить, выбрав интересующий диапазон дат из раскрывающегося списка и нажав кнопку "Ввод!".


*Определитесь, кто Вы:
робот инопланетянин человек

Внимание! Время в таблицах - всемирное. Для получения местного времени необходимо прибавить поправку, которая равна 3 ч.

Смотрите также архив погоды в соседних городах и на ближайших метеорологических станциях:

Погода в Нарве (Эстония) (27 км)
Погода в Сланцах (Ленинградская область, Россия) (41 км)
Погода в Волосово (Ленинградская область, Россия) (51 км)
Погода в Сосновом Бору (Ленинградская область, Россия) (59 км)
Погода в Шепелево (Ленинградская область, Россия) (66 км)
Погода в Йохви (Эстония) (69 км)
Погода в Гдове (Псковская область, Россия) (84 км)
Погода в Белогорке (Ленинградская область, Россия) (87 км)
Погода в Ломоносове (город Санкт-Петербург, Россия) (90 км)
Погода в Кронштадте (город Санкт-Петербург, Россия) (94 км)

Пояснения к столбцам:

Ветер - указаны скорость ветра в м/с - средняя за 10 мин, порывы в срок и между сроками (в фигурных скобках) и направление, откуда дует ветер: С - северный, СВ - северо-восточный, В - восточный, ЮВ - юго-восточный, Ю - южный, ЮЗ - юго-западный, З - западный, СЗ - северо-западный.
Видимость - горизонтальная дальность видимости в метрах или километрах. При видимости от 1 до 10 км при отсутствии осадков обычно наблюдается дымка, при ухудшении видимости до 1 км и менее - туман. В сухую погоду видимость может ухудшаться дымом, пылью или мглою.
Явления - указаны атмосферные явления, наблюдавшиеся в срок или в последний час перед сроком; фигурными скобками обозначены явления, наблюдавшиеся между сроками (за 1-3 часа до срока); квадратными скобками обозначены град или гололедные отложения с указанием их диаметра в мм.
Облачность - указаны через наклонную черту общая и нижняя облачность в баллах и высота нижней границы облаков в метрах; квадратными скобками обозначены формы облаков: Ci - перистые, Cs - перисто-слоистые, Cc - перисто-кучевые, Ac - высококучевые, As - высокослоистые, Sc - слоисто-кучевые, Ns - слоисто-дождевые, Cu - кучевые, Cb - кучево-дождевые. Подробнее классификацию облаков см. в Атласе облаков (PDF).
T - Температура воздуха - температура, измеренная на высоте 2 м над землей.
Td - Температура точки росы - температура, при понижении до которой содержащийся в воздухе водяной пар достигнет насыщения.
f - Относительная влажность воздуха - влажноcть воздуха, измеренная на высоте 2 м над землей.
Te - Эффективная температура - температура, которую ощущает одетый по сезону человек в тени. Характеристика душности погоды. При расчете учитывается влияние влажности воздуха и скорости ветра на теплоощущения человека.
Tes - Эффективная температура на солнце - температура, которую ощущает человек, с поправкой на солнечный нагрев. Характеристика знойности погоды. Зависит от высоты солнца над горизонтом, облачности и скорости ветра. Ночью, в пасмурную погоду, а также при ветре 12 м/с и более поправка равна нулю.
P - Атмосферное давление - приведенное к уровню моря атмосферное давление.
Po - Атмосферное давление - измеренное на уровне метеостанции атмосферное давление.
Tmin - Минимальная температура - минимум температуры воздуха на высоте 2 м над землей.
Tmax - Максимальная температура - максимум температуры воздуха на высоте 2 м над землей.
R - Количество осадков - Количество выпавших осадков за период времени, мм. При наведении курсора мыши на число - период времени, за который выпало указанное количество осадков.
R24 - Количество осадков - Количество выпавших осадков за 24 часа, мм.
S - Снежный покров - Высота снежного покрова, см. При наведении курсора мыши на число - состояние снежного покрова и степень покрытия местности в баллах.